Retour au catalogue

NIMBUS 2 DEB

ActifPO
NORAD 28200·DEBRIS·🇺🇸 United States

Lancé May 15, 1966 depuis Vandenberg Space Force Base

Loading…

Prochains Passages (prochaines 24 heures)

TLE

FraisSource: Space-Track

Époque: Sep 14, 2026, 10:51 UTC

1 28200U 66040N   26257.45221161 -.00002987  00000-0 -67368-2 0  9992
2 28200  99.6437 334.3003 0055726 152.0147 276.3234 13.25079515143477

Suivez NIMBUS 2 DEB en temps réel avec AllMySat

Download on the App Store